Location: Newark
(40.3500°N, 15.2333°E)
Time: 01:25:45
(UTC+00:00)

Tiros 1 despin weight - All Passes

Search period start: 18 January 2020 00:00
Search period end: 28 January 2020 00:00
Orbit: 593 x 643 km, 48.2° (Epoch: 17 January)

Date Brightness Start Highest point End Pass type
(mag) Time Alt. Az. Time Alt. Az. Time Alt. Az.
18 Jan - 11:09:58 10° SSE 11:12:32 15° SE 11:15:08 10° E daylight
18 Jan - 12:48:56 10° SW 12:53:30 77° SSE 12:58:09 10° ENE daylight
18 Jan - 14:31:05 10° W 14:35:23 38° NNW 14:39:46 10° NE daylight
18 Jan - 16:13:35 10° WNW 16:17:47 32° N 16:22:01 10° ENE daylight
18 Jan - 17:55:17 10° WNW 17:59:57 66° NNE 18:04:38 10° ESE visible
18 Jan - 19:37:14 10° WNW 19:41:19 30° SW 19:45:23 10° SSE visible
19 Jan - 11:24:50 10° SSW 11:28:45 29° SE 11:32:44 10° ENE daylight
19 Jan - 13:05:32 10° WSW 13:10:05 65° NNW 13:14:44 10° ENE daylight
19 Jan - 14:48:05 10° WNW 14:52:15 32° N 14:56:27 10° ENE daylight
19 Jan - 16:30:17 10° NW 16:34:39 38° NNE 16:39:03 10° E visible
19 Jan - 18:11:50 10° WNW 18:16:32 77° SW 18:21:14 10° SE visible
19 Jan - 19:54:48 10° W 19:57:33 15° SW 20:00:18 10° SSW visible
20 Jan - 11:40:41 10° SW 11:45:07 55° SE 11:49:38 10° ENE daylight
20 Jan - 13:22:24 10° W 13:26:49 44° NNW 13:31:16 10° NE daylight
20 Jan - 15:05:01 10° WNW 15:09:09 31° N 15:13:19 10° ENE daylight
20 Jan - 16:46:51 10° NW 16:51:26 51° NNE 16:56:00 10° E visible
20 Jan - 18:28:33 10° WNW 18:33:00 42° SW 18:37:25 10° SSE visible
21 Jan - 10:17:14 10° S 10:20:30 20° SE 10:23:49 10° E daylight
21 Jan - 11:57:04 10° WSW 12:01:37 85° NNW 12:06:16 10° ENE daylight
21 Jan - 13:39:24 10° WNW 13:43:37 34° N 13:47:54 10° NE daylight
21 Jan - 15:21:48 10° NW 15:26:02 34° N 15:30:19 10° ENE daylight
21 Jan - 17:03:23 10° WNW 17:08:05 80° NNE 17:12:47 10° ESE visible
21 Jan - 18:45:38 10° W 18:49:18 23° SW 18:52:58 10° S visible
22 Jan - 10:32:37 10° SSW 10:36:46 38° SE 10:41:01 10° ENE daylight
22 Jan - 12:13:47 10° W 12:18:15 54° NNW 12:22:48 10° NE daylight
22 Jan - 13:56:24 10° WNW 14:00:30 31° N 14:04:40 10° ENE daylight
22 Jan - 15:38:25 10° NW 15:42:52 42° NNE 15:47:19 10° E daylight
22 Jan - 17:20:01 10° WNW 17:24:37 61° SW 17:29:14 10° SE visible
22 Jan - 19:04:02 10° WSW 19:05:29 11° SW 19:06:55 10° SSW visible
23 Jan - 09:10:13 10° SSE 09:12:18 13° SE 09:14:23 10° ESE daylight
23 Jan - 10:48:42 10° SW 10:53:12 71° SE 10:57:46 10° ENE daylight
23 Jan - 12:30:44 10° W 12:35:01 39° NNW 12:39:23 10° NE daylight
23 Jan - 14:13:16 10° WNW 14:17:24 31° N 14:21:34 10° ENE daylight
23 Jan - 15:54:58 10° WNW 15:59:35 61° NNE 16:04:14 10° ESE daylight
23 Jan - 17:36:50 10° WNW 17:41:00 33° SW 17:45:11 10° SSE visible
24 Jan - 09:24:46 10° SSW 09:28:29 26° SE 09:32:16 10° E daylight
24 Jan - 11:05:15 10° WSW 11:09:45 69° NNW 11:14:21 10° ENE daylight
24 Jan - 12:47:44 10° WNW 12:51:52 32° N 12:56:02 10° ENE daylight
24 Jan - 14:29:58 10° NW 14:34:15 36° NNE 14:38:36 10° E daylight
24 Jan - 16:11:31 10° WNW 16:16:11 84° SW 16:20:53 10° SE daylight
24 Jan - 17:54:13 10° W 17:57:15 17° SW 18:00:19 10° S visible
25 Jan - 09:40:30 10° SW 09:44:49 49° SE 09:49:14 10° ENE daylight
25 Jan - 11:22:05 10° W 11:26:27 46° NNW 11:30:53 10° NE daylight
25 Jan - 13:04:41 10° WNW 13:08:45 30° N 13:12:53 10° ENE daylight
25 Jan - 14:46:33 10° NW 14:51:03 48° NNE 14:55:36 10° E daylight
25 Jan - 16:28:11 10° WNW 16:32:40 47° SW 16:37:09 10° SE visible
26 Jan - 08:17:18 10° S 08:20:15 18° SE 08:23:15 10° E daylight
26 Jan - 09:56:49 10° WSW 10:01:18 88° SSE 10:05:53 10° ENE daylight
26 Jan - 11:39:04 10° WNW 11:43:15 35° NNW 11:47:30 10° NE daylight
26 Jan - 13:21:29 10° NW 13:25:39 33° N 13:29:51 10° ENE daylight
26 Jan - 15:03:05 10° WNW 15:07:44 74° NNE 15:12:25 10° ESE daylight
26 Jan - 16:45:11 10° W 16:49:00 25° SW 16:52:49 10° S visible
27 Jan - 08:32:29 10° SSW 08:36:30 34° SE 08:40:36 10° ENE daylight
27 Jan - 10:13:29 10° WSW 10:17:55 57° NNW 10:22:26 10° NE daylight
27 Jan - 11:56:04 10° WNW 12:00:07 31° N 12:04:14 10° ENE daylight
27 Jan - 13:38:08 10° NW 13:42:29 40° NNE 13:46:53 10° E daylight
27 Jan - 15:19:40 10° WNW 15:24:17 67° SW 15:28:55 10° SE daylight
27 Jan - 17:03:10 10° WSW 17:05:12 13° SW 17:07:14 10° SSW visible
